Home > Weather > Ellwangen (Jagst) > Past weeks

Flag for Germany Past Weather in Ellwangen (Jagst), Baden-Württemberg, Germany — Yesterday and Last 2 Weeks

Now
66 °F

Scattered clouds.


Feels Like: 66 °F
Forecast: 52 / 72 °F
Wind: 6 mph from Northeast

Location: Niederstetten

Current Time: May 27, 2016 at 8:16:13 PM

Latest Report: May 27, 2016 at 7:20 PM


Visibility: 6 mi

Pressure: 29.98 "Hg

Humidity: 83%

Dew Point: 61 °F

Location of Ellwangen (Jagst)Location

Past Weather in Ellwangen (Jagst) — Graph

°F

Ellwangen (Jagst) Temperature Yesterday

Maximum temperature yesterday: 70 °F (at 4:20 PM)
Minimum temperature yesterday: 48 °F (at 5:20 AM)
Average temperature yesterday: 59 °F

High & Low Weather Summary for the Past Weeks

 TemperatureHumidityPressure
High77 °F (May 22, 1:20 PM)100% (May 23, 11:20 PM)30.15 "Hg (May 23, 11:20 PM)
Low37 °F (May 15, 5:20 AM)38% (May 22, 12:20 PM)29.45 "Hg (May 12, 7:20 PM)
Average53 °F75%29.93 "Hg
* Reported May 12 6:20 PM — May 27 6:20 PM, Ellwangen (Jagst), Weather by CustomWeather, © 2016

Note: Actual official high and low records may vary slightly from our data, if they occured in-between our weather recording intervals... More about our weather records

Advertising

Ellwangen (Jagst) Weather History for the Previous 24 Hours

Scroll right to see more
 ConditionsComfort  
Time TempWeatherWind HumidityBarometerVisibility
6:20 PM
Fri, May 27
68 °FScattered clouds.7 mph69%29.98 "HgN/A
5:20 PM70 °FThundershowers. Broken clouds.5 mph78%29.98 "HgN/A
5:00 PM70 °FThundershowers. Broken clouds.6 mph73%29.98 "HgN/A
4:20 PM72 °FPartly sunny.7 mph69%29.98 "HgN/A
3:20 PM72 °FPartly sunny.5 mph61%29.98 "HgN/A
2:20 PM72 °FPartly sunny.3 mph61%29.98 "HgN/A
1:20 PM68 °FScattered clouds.7 mph69%29.98 "HgN/A
12:20 PM68 °FScattered clouds.6 mph64%29.98 "HgN/A
11:20 AM66 °FBroken clouds.5 mph73%30.01 "HgN/A
10:20 AM63 °FBroken clouds.12 mph83%29.98 "HgN/A
9:20 AM61 °FPartly sunny.12 mph88%29.98 "HgN/A
8:20 AM55 °FPartly sunny.7 mph94%30.01 "Hg6 mi
7:20 AM54 °FRain. Fog.6 mph94%30.01 "Hg3 mi
6:20 AM54 °FRain. Mostly cloudy.7 mph94%29.98 "Hg4 mi
5:20 AM55 °FLight rain. Overcast.5 mph82%29.98 "HgN/A
4:20 AM55 °FPassing clouds.7 mph77%29.95 "HgN/A
3:20 AM57 °FPassing clouds.6 mph72%29.95 "HgN/A
2:20 AM57 °FPassing clouds.6 mph72%29.98 "HgN/A
1:20 AM57 °FPartly cloudy.6 mph72%29.98 "HgN/A
12:20 AM57 °FPassing clouds.6 mph77%29.98 "HgN/A
11:20 PM
Thu, May 26
59 °FPassing clouds.8 mph68%29.98 "HgN/A
10:20 PM59 °FPassing clouds.7 mph72%30.01 "HgN/A
9:20 PM61 °FScattered clouds.6 mph72%29.98 "HgN/A
8:20 PM64 °FScattered clouds.5 mph68%29.98 "HgN/A
Weather by CustomWeather, © 2016

See weather overviewHow to use our weather pages